timestamp,wind_dir_avg,wind_spd_avg,wind_spd_max_dir,wind_spd_gust,battery_voltage,lat,long
2021-02-09 00:04:01+00:00,326.0,14.36,327.0,16.16,12.33,47.59359,-54.27349
2021-02-09 00:14:01+00:00,324.0,13.75,327.0,16.7,12.25,47.59359,-54.27349
2021-02-09 00:24:01+00:00,322.0,13.8,323.0,15.9,12.25,47.59359,-54.27349
2021-02-09 00:34:01+00:00,323.0,13.42,327.0,15.75,12.25,47.59359,-54.27349
2021-02-09 00:44:01+00:00,325.0,14.23,324.0,16.0,12.25,47.59359,-54.27349
2021-02-09 00:54:01+00:00,320.0,14.92,317.0,17.77,12.25,47.59359,-54.27349
2021-02-09 01:04:01+00:00,322.0,14.11,324.0,15.58,12.25,47.59359,-54.27349
2021-02-09 01:14:01+00:00,315.0,15.12,318.0,21.26,12.25,47.59359,-54.27349
2021-02-09 01:24:01+00:00,319.0,14.42,314.0,19.11,12.25,47.59359,-54.27349
2021-02-09 01:34:01+00:00,316.0,13.2,318.0,15.54,12.25,47.59359,-54.27349
2021-02-09 01:44:01+00:00,316.0,14.21,318.0,16.66,12.25,47.59359,-54.27349
2021-02-09 01:54:01+00:00,321.0,13.57,323.0,15.93,12.25,47.59359,-54.27349
2021-02-09 02:04:01+00:00,316.0,11.65,318.0,13.64,12.25,47.59359,-54.27349
2021-02-09 02:14:01+00:00,317.0,12.21,326.0,14.96,12.25,47.59359,-54.27349
2021-02-09 02:24:01+00:00,309.0,12.55,297.0,16.28,12.25,47.59359,-54.27349
2021-02-09 02:34:01+00:00,311.0,13.26,296.0,18.39,12.25,47.59359,-54.27349
2021-02-09 02:44:01+00:00,305.0,12.29,309.0,14.78,12.25,47.59359,-54.27349
2021-02-09 02:54:01+00:00,307.0,13.06,294.0,18.13,12.25,47.59359,-54.27349
2021-02-09 03:04:01+00:00,304.0,12.98,296.0,17.57,12.25,47.59359,-54.27349
2021-02-09 03:14:01+00:00,307.0,12.7,305.0,14.74,12.17,47.59359,-54.27349
2021-02-09 03:24:01+00:00,309.0,13.54,308.0,18.76,12.17,47.59359,-54.27349
2021-02-09 03:34:01+00:00,304.0,14.44,297.0,21.09,12.17,47.59359,-54.27349
2021-02-09 03:44:01+00:00,303.0,17.08,306.0,21.76,12.17,47.59359,-54.27349
2021-02-09 03:54:01+00:00,298.0,15.53,297.0,19.92,12.17,47.59359,-54.27349
2021-02-09 04:04:01+00:00,300.0,13.48,289.0,18.96,12.17,47.59359,-54.27349
2021-02-09 04:14:01+00:00,299.0,17.4,301.0,21.68,12.17,47.59359,-54.27349
2021-02-09 04:24:01+00:00,297.0,18.65,302.0,21.78,12.17,47.59359,-54.27349
2021-02-09 04:34:01+00:00,298.0,15.95,290.0,19.89,12.17,47.59359,-54.27349
2021-02-09 04:44:01+00:00,301.0,16.49,303.0,21.75,12.17,47.59359,-54.27349
2021-02-09 04:54:01+00:00,297.0,17.87,301.0,21.67,12.17,47.59359,-54.27349
2021-02-09 05:04:01+00:00,298.0,14.46,296.0,19.5,12.17,47.59359,-54.27349
2021-02-09 05:14:01+00:00,295.0,15.15,291.0,20.17,12.17,47.59359,-54.27349
2021-02-09 05:24:01+00:00,291.0,16.8,295.0,20.41,12.17,47.59359,-54.27349
2021-02-09 05:34:01+00:00,297.0,14.8,302.0,19.52,12.17,47.59359,-54.27349
2021-02-09 05:44:01+00:00,300.0,13.38,300.0,17.04,12.17,47.59359,-54.27349
2021-02-09 05:54:01+00:00,301.0,16.02,301.0,20.77,12.17,47.59359,-54.27349
2021-02-09 06:04:01+00:00,301.0,17.67,304.0,21.56,12.17,47.59359,-54.27349
2021-02-09 06:14:01+00:00,298.0,14.93,291.0,19.52,12.17,47.59359,-54.27349
2021-02-09 06:24:01+00:00,299.0,14.14,291.0,19.72,12.17,47.59359,-54.27349
2021-02-09 06:34:01+00:00,301.0,17.3,301.0,21.82,12.17,47.59359,-54.27349
2021-02-09 06:44:01+00:00,299.0,16.67,299.0,20.91,12.17,47.59359,-54.27349
2021-02-09 06:54:01+00:00,297.0,18.14,301.0,21.18,12.17,47.59359,-54.27349
2021-02-09 07:04:01+00:00,295.0,17.26,291.0,20.18,12.17,47.59359,-54.27349
2021-02-09 07:14:01+00:00,296.0,18.06,299.0,20.96,12.25,47.59359,-54.27349
2021-02-09 07:24:01+00:00,299.0,17.03,302.0,21.59,12.25,47.59359,-54.27349
2021-02-09 07:34:01+00:00,293.0,17.61,298.0,21.42,12.25,47.59359,-54.27349
2021-02-09 07:44:01+00:00,294.0,17.86,298.0,21.18,12.25,47.59359,-54.27349
2021-02-09 07:54:01+00:00,299.0,15.27,301.0,21.34,12.25,47.59359,-54.27349
2021-02-09 08:04:01+00:00,295.0,17.44,300.0,20.89,12.25,47.59359,-54.27349
2021-02-09 08:14:01+00:00,295.0,16.33,292.0,19.88,12.25,47.59359,-54.27349
2021-02-09 08:24:01+00:00,295.0,18.77,299.0,21.38,12.25,47.59359,-54.27349
2021-02-09 08:34:01+00:00,297.0,16.27,301.0,21.02,12.25,47.59359,-54.27349
2021-02-09 08:44:01+00:00,301.0,18.61,304.0,21.76,12.25,47.59359,-54.27349
2021-02-09 08:54:01+00:00,300.0,16.97,301.0,20.62,12.25,47.59359,-54.27349
2021-02-09 09:04:01+00:00,301.0,19.0,303.0,22.02,12.25,47.59359,-54.27349
2021-02-09 09:14:01+00:00,298.0,17.44,298.0,21.19,12.17,47.59359,-54.27349
2021-02-09 09:24:01+00:00,302.0,18.08,304.0,23.78,12.17,47.59359,-54.27349
2021-02-09 09:34:01+00:00,299.0,20.17,302.0,22.33,12.17,47.59359,-54.27349
2021-02-09 09:44:01+00:00,301.0,17.69,303.0,21.46,12.17,47.59359,-54.27349
2021-02-09 09:54:01+00:00,298.0,17.74,303.0,21.55,12.17,47.59359,-54.27349
2021-02-09 10:04:01+00:00,299.0,19.35,293.0,23.2,12.17,47.59359,-54.27349
2021-02-09 10:14:01+00:00,299.0,19.29,300.0,21.48,12.17,47.59359,-54.27349
2021-02-09 10:24:01+00:00,297.0,18.76,302.0,21.08,12.17,47.59359,-54.27349
2021-02-09 10:34:01+00:00,299.0,16.39,295.0,20.32,12.17,47.59359,-54.27349
2021-02-09 10:44:01+00:00,301.0,18.2,299.0,21.69,12.17,47.59359,-54.27349
2021-02-09 10:54:01+00:00,301.0,14.75,299.0,20.58,12.17,47.59359,-54.27349
2021-02-09 11:04:01+00:00,302.0,14.11,297.0,18.76,12.17,47.59359,-54.27349
2021-02-09 11:14:01+00:00,300.0,17.28,303.0,20.91,12.17,47.59359,-54.27349
2021-02-09 11:24:01+00:00,298.0,18.31,298.0,22.09,12.17,47.59359,-54.27349
2021-02-09 11:34:01+00:00,297.0,18.22,299.0,21.23,12.17,47.59359,-54.27349
2021-02-09 11:44:01+00:00,296.0,16.15,295.0,20.01,12.17,47.59359,-54.27349
2021-02-09 11:54:01+00:00,297.0,16.49,296.0,20.53,12.17,47.59359,-54.27349
2021-02-09 12:04:01+00:00,302.0,16.5,304.0,21.06,12.17,47.59359,-54.27349
2021-02-09 12:14:01+00:00,296.0,17.38,298.0,20.38,12.25,47.59359,-54.27349
2021-02-09 12:24:01+00:00,298.0,17.36,298.0,20.71,12.25,47.59359,-54.27349
2021-02-09 12:34:01+00:00,297.0,16.72,297.0,20.44,12.25,47.59359,-54.27349
2021-02-09 12:44:01+00:00,298.0,18.59,307.0,21.83,12.25,47.59359,-54.27349
2021-02-09 12:54:01+00:00,300.0,15.63,298.0,20.28,12.25,47.59359,-54.27349
2021-02-09 13:04:01+00:00,301.0,14.74,295.0,19.22,12.25,47.59359,-54.27349
2021-02-09 13:14:01+00:00,304.0,16.99,309.0,20.84,12.89,47.59359,-54.27349
2021-02-09 13:24:01+00:00,303.0,19.34,298.0,22.74,12.89,47.59359,-54.27349
2021-02-09 13:34:01+00:00,303.0,17.53,304.0,20.14,12.89,47.59359,-54.27349
2021-02-09 13:44:01+00:00,306.0,17.9,308.0,22.97,12.89,47.59359,-54.27349
2021-02-09 13:54:01+00:00,301.0,18.35,301.0,21.41,12.89,47.59359,-54.27349
2021-02-09 14:04:01+00:00,305.0,19.05,305.0,22.95,12.89,47.59359,-54.27349
2021-02-09 14:14:01+00:00,303.0,15.87,298.0,20.35,13.6,47.59359,-54.27349
2021-02-09 14:24:01+00:00,302.0,17.27,307.0,22.32,13.6,47.59359,-54.27349
2021-02-09 14:34:01+00:00,299.0,18.6,297.0,21.86,13.6,47.59359,-54.27349
2021-02-09 14:44:01+00:00,305.0,17.94,305.0,22.42,13.6,47.59359,-54.27349
2021-02-09 14:54:01+00:00,305.0,17.72,303.0,22.34,13.6,47.59359,-54.27349
2021-02-09 15:04:01+00:00,302.0,17.02,303.0,21.06,13.6,47.59359,-54.27349
2021-02-09 15:14:01+00:00,303.0,16.87,301.0,20.76,13.53,47.59359,-54.27349
2021-02-09 15:24:01+00:00,302.0,17.83,307.0,21.75,13.53,47.59359,-54.27349
2021-02-09 15:34:01+00:00,300.0,18.36,303.0,20.94,13.53,47.59359,-54.27349
2021-02-09 15:44:01+00:00,299.0,17.05,301.0,20.46,13.53,47.59359,-54.27349
2021-02-09 15:54:01+00:00,308.0,15.27,307.0,20.18,13.53,47.59359,-54.27349
2021-02-09 16:04:01+00:00,307.0,16.75,306.0,21.31,13.53,47.59359,-54.27349
2021-02-09 16:14:01+00:00,309.0,15.96,309.0,20.86,13.6,47.59359,-54.27349
2021-02-09 16:24:01+00:00,310.0,12.99,287.0,18.8,13.6,47.59359,-54.27349
2021-02-09 16:34:01+00:00,304.0,12.81,299.0,15.0,13.6,47.59359,-54.27349
2021-02-09 16:44:01+00:00,305.0,16.28,304.0,22.12,13.6,47.59359,-54.27349
2021-02-09 16:54:01+00:00,303.0,16.18,296.0,20.17,13.6,47.59359,-54.27349
2021-02-09 17:04:01+00:00,308.0,14.74,306.0,19.89,13.6,47.59359,-54.27349
2021-02-09 17:14:01+00:00,303.0,15.9,302.0,20.97,13.76,47.59359,-54.27349
2021-02-09 17:24:01+00:00,311.0,13.47,324.0,15.98,13.76,47.59359,-54.27349
2021-02-09 17:34:01+00:00,309.0,12.88,315.0,15.47,13.76,47.59359,-54.27349
2021-02-09 17:44:01+00:00,307.0,17.07,302.0,21.73,13.76,47.59359,-54.27349
2021-02-09 17:54:01+00:00,308.0,11.94,307.0,13.24,13.76,47.59359,-54.27349
2021-02-09 18:04:01+00:00,310.0,13.32,303.0,17.56,13.76,47.59359,-54.27349
2021-02-09 18:14:01+00:00,303.0,10.91,302.0,13.96,14.24,47.59359,-54.27349
2021-02-09 18:24:01+00:00,311.0,12.15,310.0,14.83,14.24,47.59359,-54.27349
2021-02-09 18:34:01+00:00,312.0,14.19,305.0,18.34,14.24,47.59359,-54.27349
2021-02-09 18:44:01+00:00,311.0,15.24,306.0,20.38,14.24,47.59359,-54.27349
2021-02-09 18:54:01+00:00,319.0,14.33,322.0,17.14,14.24,47.59359,-54.27349
2021-02-09 19:04:01+00:00,314.0,13.73,322.0,17.37,14.24,47.59359,-54.27349
2021-02-09 19:14:01+00:00,309.0,12.18,301.0,17.23,14.24,47.59359,-54.27349
2021-02-09 19:24:01+00:00,300.0,18.06,303.0,22.27,14.24,47.59359,-54.27349
2021-02-09 19:34:01+00:00,311.0,13.43,304.0,16.04,14.24,47.59359,-54.27349
2021-02-09 19:44:01+00:00,308.0,11.13,317.0,13.21,14.24,47.59359,-54.27349
2021-02-09 19:54:01+00:00,306.0,12.94,301.0,17.06,14.24,47.59359,-54.27349
2021-02-09 20:04:01+00:00,307.0,13.31,291.0,18.56,14.24,47.59359,-54.27349
2021-02-09 20:14:01+00:00,305.0,13.56,290.0,19.84,13.53,47.59359,-54.27349
2021-02-09 20:24:01+00:00,311.0,11.8,319.0,13.88,13.53,47.59359,-54.27349
2021-02-09 20:34:01+00:00,300.0,9.64,299.0,11.68,13.53,47.59359,-54.27349
2021-02-09 20:44:01+00:00,293.0,10.48,308.0,13.39,13.53,47.59359,-54.27349
2021-02-09 20:54:01+00:00,289.0,9.81,295.0,12.47,13.53,47.59359,-54.27349
2021-02-09 21:04:01+00:00,300.0,11.0,303.0,13.56,13.53,47.59359,-54.27349
2021-02-09 21:14:01+00:00,296.0,11.5,295.0,16.63,12.97,47.59359,-54.27349
2021-02-09 21:24:01+00:00,306.0,12.56,308.0,14.99,12.97,47.59359,-54.27349
2021-02-09 21:34:01+00:00,297.0,13.15,294.0,16.44,12.97,47.59359,-54.27349
2021-02-09 21:44:01+00:00,303.0,13.07,291.0,18.64,12.97,47.59359,-54.27349
2021-02-09 21:54:01+00:00,303.0,13.49,294.0,18.07,12.97,47.59359,-54.27349
2021-02-09 22:04:01+00:00,307.0,13.6,295.0,19.13,12.97,47.59359,-54.27349
2021-02-09 22:14:01+00:00,301.0,13.01,295.0,16.43,12.65,47.59359,-54.27349
2021-02-09 22:24:01+00:00,303.0,14.02,300.0,19.83,12.65,47.59359,-54.27349
2021-02-09 22:34:01+00:00,300.0,9.44,291.0,11.46,12.65,47.59359,-54.27349
2021-02-09 22:44:01+00:00,298.0,10.81,300.0,13.32,12.65,47.59359,-54.27349
2021-02-09 22:54:01+00:00,306.0,11.55,302.0,14.0,12.65,47.59359,-54.27349
2021-02-09 23:04:01+00:00,298.0,14.21,294.0,18.44,12.65,47.59359,-54.27349
2021-02-09 23:14:01+00:00,288.0,10.71,279.0,14.54,12.57,47.59359,-54.27349
2021-02-09 23:24:01+00:00,305.0,12.83,297.0,19.16,12.57,47.59359,-54.27349
2021-02-09 23:34:01+00:00,304.0,14.43,300.0,17.87,12.57,47.59359,-54.27349
2021-02-09 23:44:01+00:00,301.0,14.35,303.0,18.53,12.57,47.59359,-54.27349
2021-02-09 23:54:01+00:00,302.0,13.33,303.0,16.97,12.57,47.59359,-54.27349
